Flag for Jordan Weather past 2 weeks in Zarqa, Jordan

Now
52 °F

Haze.


Feels Like: 52 °F
Forecast: 47 / 61 °F
Wind: No wind

Location: Amman Airport

Current Time: Dec 19, 2014 at 7:12:09 AM

Latest Report: Dec 19, 2014 at 6:00 AM


Visibility: 2 mi

Pressure: 30.09 "Hg

Humidity: 62%

Dew point: 39 °F

Location of ZarqaLocation

Historic Weather in Zarqa — Graph

°F

Zarqa temperature yesterday

Maximum temperature yesterday: 55 °F (at 3:00 PM)
Minimum temperature yesterday: 45 °F (at 6:00 AM)
Average temperature yesterday: 50 °F

Past Weeks' High & Low Weather Summary

 TemperatureHumidityPressure
High70 °F (Dec 4, 2:00 PM)100% (Dec 15, 1:00 AM)30.33 "Hg (Dec 15, 1:00 AM)
Low43 °F (Dec 17, 5:00 AM)34% (Dec 9, 1:00 AM)29.89 "Hg (Dec 9, 12:00 PM)
Average55 °F69%30.13 "Hg
* Reported Dec 4 6:00 AM — Dec 19 6:00 AM, Zarqa, Weather by CustomWeather, © 2014

Note: Actual official high and low records may vary slightly from our data, if they occured in-between our weather recording intervals... More about our weather records

Advertising

Zarqa weather history for previous 24 hours

 ConditionsComfort  
Time TempWeatherWind HumidityBarometerVisibility
6:00 AM
Dec 19
52 °FHaze.No wind62%30.09 "Hg2 mi
5:00 AM48 °FHaze.5 mph76%30.09 "Hg2 mi
4:00 AM52 °FHaze.No wind72%30.12 "Hg2 mi
3:00 AM48 °FHaze.No wind76%30.12 "Hg2 mi
2:00 AM50 °FHaze.No wind82%30.12 "Hg2 mi
1:00 AM52 °FHaze.5 mph67%30.12 "Hg2 mi
12:00 AM52 °FHaze.5 mph72%30.12 "Hg2 mi
11:00 PM
Dec 18
52 °FHaze.5 mph77%30.12 "Hg2 mi
10:00 PM48 °FHaze.No wind87%30.12 "Hg2 mi
9:00 PM50 °FHaze.No wind82%30.12 "Hg2 mi
8:00 PM52 °FHaze.No wind82%30.15 "Hg2 mi
7:00 PM52 °FHaze.No wind77%30.12 "Hg2 mi
6:00 PM52 °FHaze.No wind77%30.12 "Hg2 mi
5:00 PM54 °FHaze.No wind72%30.12 "Hg1 mi
4:00 PM54 °FHaze.No wind72%30.09 "Hg1 mi
3:00 PM55 °FHaze.No wind63%30.09 "Hg2 mi
2:00 PM54 °FHaze.5 mph67%30.09 "Hg2 mi
1:00 PM54 °FHaze.5 mph72%30.12 "Hg1 mi
12:00 PM52 °FHaze.5 mph72%30.15 "Hg1 mi
11:00 AM50 °FHaze.5 mph76%30.18 "Hg2 mi
10:00 AM46 °FHaze.6 mph76%30.18 "Hg2 mi
9:00 AM46 °FClear.6 mph82%30.21 "Hg2 mi
8:00 AM45 °FClear.5 mph81%30.18 "Hg2 mi
7:00 AM45 °FClear.5 mph81%30.15 "Hg2 mi
Weather by CustomWeather, © 2014

See weather overviewHow to use our weather pages